Location: Walnut Hills Mobile Home Park
(34.0445°N, 117.8184°W)
Time: 03:25:55
(UTC+00:00)

Cosmos-2242 - Pass Details

Date: 17 December 2025
Orbit: 566 x 591 km, 82.5° (Epoch: 15 January)

Event Time Altitude Azimuth Distance (km) Brightness Sun altitude
Exits shadow 13:07:09 39° 224° (SW) 866 3.5 -20.8°
Drops below altitude 10° 13:10:06 10° 192° (SSW) 1,867 5.5 -20.2°
Sets 13:12:19 0° 187° (S) 2,757 6.5 -19.8°
